www.pogodaiklimat.ru

Погода и климат >> Архив погоды >> Великобритания >> Шоберинесс


ПОГОДА в Шоберинессе

  • Прогноз погоды в Шоберинессе
  • Монитор погоды в Шоберинессе

АРХИВ ПОГОДЫ в Шоберинессе

Время (UTC), дата Ветер
(напр.,м/с)
 
Видим.   Явления Облачность Т
(С)
Тd
(С)
f
(%)
Тe
(С)
Тes
(С)
Комфортность P
(гПа)
Po
(гПа)
Тmin
(С)
Tmax
(С)
R
(мм)
R24
(мм)
S
(см)
19 18.08 ЮЗ 6 30 км н/о +18.3 +11.8 66 +18 +18 1007.2 1007.0
20 18.08 ЮЗ 6 27 км н/о +17.4 +11.9 70 +17 +17 1008.1 1007.9
21 18.08 ЮЗ 6 35 км в посл. час дождь н/о +16.1 +10.9 71 +15 +15 1009.0 1008.8
22 18.08 ЮЗ 4 25 км н/о +15.9 +11.9 77 +15 +15 1009.3 1009.0
23 18.08 ЮЗ 5 17 км н/о +15.5 +12.3 81 +14 +14 1009.7 1009.5
00 19.08 З 4 18 км н/о +15.0 +11.8 81 +14 +14 1010.0 1009.8 0.0
01 19.08 ЮЗ 6 22 км н/о +14.9 +11.1 78 +13 +13 1010.5 1010.3
02 19.08 ЮЗ 5 19 км н/о +14.6 +11.0 79 +13 +13 1010.8 1010.6
03 19.08 ЮЗ 5 17 км н/о +14.4 +11.3 82 +13 +13 1010.8 1010.6
04 19.08 ЮЗ 5 17 км н/о +14.2 +11.4 83 +12 +12 1011.3 1011.0
05 19.08 ЮЗ 6 15 км н/о +14.1 +11.4 84 +12 +12 1011.6 1011.4
06 19.08 ЮЗ 6 16 км н/о +14.5 +11.2 81 +13 +13 1011.9 1011.7 +14.0 0.0
07 19.08 З 5 25 км н/о +15.4 +11.4 77 +14 +14 1012.1 1011.9
08 19.08 З 6 22 км н/о +16.6 +11.3 71 +16 +16 1012.4 1012.2
09 19.08 З 6 27 км н/о +18.3 +12.0 67 +18 +18 1013.0 1012.8
10 19.08 З 7 22 км н/о +19.4 +12.6 65 +20 +20 1013.4 1013.1
11 19.08 ЮЗ 7 40 км н/о +20.3 +11.7 58 +22 +22 комфорт 1013.6 1013.4
12 19.08 З 6 45 км н/о +21.0 +9.9 49 +23 +23 комфорт 1013.8 1013.6
13 19.08 ЮЗ 5 50 км слаб. ливневой дождь н/о +19.8 +10.7 56 +21 +21 комфорт 1014.1 1013.9
14 19.08 ЮЗ 7 35 км в посл. час дождь н/о +20.1 +10.8 55 +21 +21 комфорт 1014.5 1014.3
15 19.08 ЮЗ 7 35 км в посл. час дождь н/о +19.8 +10.9 56 +21 +21 комфорт 1015.0 1014.8
16 19.08 ЮЗ 8 35 км н/о +18.8 +12.8 68 +19 +19 1015.1 1014.8
17 19.08 ЮЗ 6 50 км в посл. час дождь н/о +19.4 +9.7 53 +20 +20 1015.3 1015.1
18 19.08 ЮЗ 6 40 км н/о +18.5 +10.0 58 +18 +18 1015.8 1015.6 +21.5 0.8
19 19.08 ЮЗ 5 35 км н/о +17.8 +10.4 62 +17 +17 1016.4 1016.2
20 19.08 ЮЗ 5 40 км н/о +16.4 +11.6 73 +16 +16 1017.2 1017.0
21 19.08 ЮЗ 4 30 км н/о +15.4 +11.4 77 +14 +14 1018.0 1017.7
22 19.08 ЮЗ 4 30 км н/о +14.9 +11.5 80 +14 +14 1018.5 1018.2
23 19.08 ЮЗ 4 24 км н/о +14.6 +11.5 82 +13 +13 1018.9 1018.6
00 20.08 З 4 30 км н/о +14.5 +11.2 81 +13 +13 1019.0 1018.8
01 20.08 З 3 25 км н/о +14.1 +11.0 82 +13 +13 1019.1 1018.9
02 20.08 З 3 25 км н/о +13.5 +10.6 83 +13 +13 1019.0 1018.8
03 20.08 З 4 28 км н/о +13.5 +10.3 81 +12 +12 1019.3 1019.1
04 20.08 З 3 27 км н/о +13.2 +10.5 84 +12 +12 1019.5 1019.3
05 20.08 З 3 25 км н/о +12.7 +10.2 85 +11 +11 1020.0 1019.8
06 20.08 З 2 22 км н/о +12.9 +10.6 86 +12 +12 1020.5 1020.2 +12.5
07 20.08 З 4 28 км н/о +14.0 +10.7 80 +13 +13 1021.2 1021.0
08 20.08 З 4 23 км н/о +15.5 +10.8 74 +15 +15 1021.7 1021.5
09 20.08 З 4 35 км н/о +16.8 +11.1 69 +16 +16 1022.1 1021.9
10 20.08 З 5 28 км н/о +18.1 +8.9 55 +18 +18 1022.2 1022.0
11 20.08 З 6 40 км н/о +18.7 +7.5 48 +19 +19 1022.3 1022.1
12 20.08 З 6 30 км н/о +19.5 +6.1 42 +20 +20 1022.4 1022.2
13 20.08 З 6 26 км н/о +20.3 +7.7 44 +21 +21 комфорт 1022.7 1022.5
14 20.08 СЗ 5 40 км н/о +20.2 +6.0 40 +21 +21 комфорт 1023.0 1022.7
15 20.08 СЗ 4 45 км н/о +20.0 +5.8 39 +21 +21 комфорт 1023.3 1023.0
16 20.08 СЗ 4 45 км н/о +19.9 +6.2 41 +21 +21 комфорт 1023.5 1023.2
17 20.08 З 4 29 км н/о +20.2 +6.0 40 +21 +21 комфорт 1023.9 1023.6
18 20.08 З 4 35 км н/о +19.1 +5.3 40 +20 +20 1024.5 1024.2 +21.6
19 20.08 СЗ 2 40 км н/о +17.4 +6.6 49 +18 +18 1024.9 1024.7
20 20.08 З 3 50 км н/о +15.1 +6.2 55 +15 +15 1025.6 1025.4
21 20.08 З 2 45 км н/о +14.4 +6.1 57 +14 +14 1026.0 1025.8
22 20.08 З 2 13 км н/о +14.4 +6.4 59 +14 +14 1026.4 1026.1
23 20.08 З 1 35 км н/о +10.9 +5.6 70 +11 +11 1026.5 1026.3
00 21.08 З 2 45 км н/о +9.4 +6.2 80 +8 +8 1026.7 1026.5
01 21.08 З 3 22 км н/о +13.3 +8.2 71 +12 +12 1026.7 1026.4
02 21.08 З 3 26 км н/о +13.2 +9.3 77 +12 +12 1026.9 1026.6
03 21.08 З 3 23 км н/о +13.1 +9.7 80 +12 +12 1026.9 1026.6
04 21.08 ЮЗ 3 22 км н/о +12.2 +9.6 84 +11 +11 1027.0 1026.8
05 21.08 ЮЗ 2 23 км н/о +10.7 +8.7 87 +10 +10 1027.3 1027.0
06 21.08 ЮЗ 1 24 км н/о +11.6 +9.8 89 +12 +12 1027.5 1027.3 +9.1
07 21.08 ЮЗ 3 29 км н/о +15.2 +12.1 82 +15 +15 1027.9 1027.7
08 21.08 ЮЗ 3 23 км н/о +16.8 +12.0 73 +17 +17 1028.0 1027.7
09 21.08 З 4 28 км н/о +18.2 +11.6 65 +18 +18 1027.9 1027.6
10 21.08 ЮЗ 4 22 км н/о +18.8 +11.3 62 +19 +19 1027.8 1027.5
11 21.08 ЮЗ 4 30 км н/о +20.0 +11.0 56 +22 +22 комфорт 1027.5 1027.3
12 21.08 ЮЗ 6 30 км н/о +20.7 +9.5 49 +22 +22 комфорт 1027.3 1027.1
13 21.08 ЮЗ 4 35 км н/о +21.2 +10.0 49 +23 +23 комфорт 1026.6 1026.4
14 21.08 ЮВ 5 27 км н/о +20.6 +11.2 55 +22 +22 комфорт 1026.4 1026.1
15 21.08 ЮВ 4 29 км н/о +21.1 +12.7 59 +23 +23 комфорт 1026.0 1025.8
16 21.08 ЮВ 4 25 км н/о +21.0 +12.6 59 +24 +24 комфорт 1025.7 1025.5
17 21.08 Ю 5 35 км н/о +21.1 +11.2 53 +23 +23 комфорт 1025.3 1025.1
18 21.08 ЮЗ 4 35 км н/о +20.1 +11.6 58 +22 +22 комфорт 1025.2 1025.0 +22.0
19 21.08 ЮЗ 4 45 км н/о +18.1 +11.6 66 +18 +18 1025.3 1025.0
20 21.08 Ю 4 30 км н/о +16.6 +11.4 71 +16 +16 1025.5 1025.3
21 21.08 ЮЗ 4 30 км н/о +15.6 +11.2 75 +15 +15 1025.7 1025.4
22 21.08 ЮЗ 2 25 км н/о +15.1 +10.6 74 +15 +15 1025.7 1025.5
23 21.08 ЮЗ 3 22 км н/о +14.8 +11.3 80 +14 +14 1025.7 1025.4
00 22.08 ЮЗ 3 23 км н/о +14.1 +11.3 83 +13 +13 1025.3 1025.0
01 22.08 ЮЗ 4 19 км н/о +13.7 +11.5 87 +12 +12 1025.0 1024.7
02 22.08 ЮЗ 3 18 км в посл. час дождь н/о +13.7 +11.2 85 +13 +13 1025.0 1024.8
03 22.08 ЮЗ 4 18 км н/о +13.8 +11.4 85 +12 +12 1024.8 1024.6
04 22.08 ЮЗ 3 17 км н/о +13.4 +11.8 90 +12 +12 1024.8 1024.5
05 22.08 ЮЗ 3 15 км н/о +13.2 +11.7 91 +12 +12 1024.8 1024.6
06 22.08 ЮЗ 4 27 км н/о +14.0 +11.8 87 +13 +13 1025.0 1024.8 +12.7 0.0
07 22.08 ЮЗ 5 23 км н/о +15.0 +11.4 79 +14 +14 1025.3 1025.1
08 22.08 ЮЗ 5 21 км н/о +16.2 +11.6 74 +15 +15 1025.1 1024.9
09 22.08 З 6 45 км н/о +17.8 +10.5 62 +17 +17 1025.3 1025.0
10 22.08 ЮЗ 6 45 км н/о +18.9 +9.6 55 +19 +19 1025.4 1025.2
11 22.08 ЮЗ 5 35 км н/о +20.9 +10.8 52 +23 +23 комфорт 1025.2 1025.0
12 22.08 ЮЗ 6 45 км н/о +21.9 +11.3 51 +24 +24 комфорт 1024.7 1024.5
13 22.08 ЮЗ 6 30 км н/о +22.3 +10.2 46 +24 +24 комфорт 1024.6 1024.3
14 22.08 ЮЗ 5 30 км н/о +23.2 +11.6 48 +26 +26 жарко 1024.3 1024.1
15 22.08 З 5 20 км н/о +23.3 +11.3 47 +26 +26 жарко 1024.2 1023.9
16 22.08 ЮЗ 6 40 км н/о +23.5 +11.8 48 +25 +25 комфорт 1023.8 1023.6
17 22.08 ЮЗ 4 45 км н/о +23.5 +11.9 48 +25 +25 комфорт 1023.7 1023.4
18 22.08 З 5 40 км н/о +22.5 +12.5 53 +25 +25 комфорт 1023.8 1023.5 +23.8
19 22.08 ЮЗ 4 40 км н/о +21.2 +13.0 59 +23 +23 комфорт 1024.2 1023.9
20 22.08 ЮЗ 3 30 км н/о +18.7 +14.0 74 +20 +20 1024.8 1024.6
21 22.08 ЮЗ 4 30 км н/о +17.8 +14.3 80 +18 +18 1025.1 1024.9
22 22.08 ЮЗ 4 30 км н/о +17.9 +13.8 77 +18 +18 1025.1 1024.9
23 22.08 ЮЗ 4 35 км н/о +17.4 +13.5 78 +17 +17 1025.5 1025.2
00 23.08 З 3 35 км н/о +16.9 +13.5 80 +17 +17 1025.4 1025.1
01 23.08 З 2 30 км н/о +16.1 +12.8 81 +16 +16 1025.4 1025.2
02 23.08 З 1 30 км н/о +14.1 +11.2 83 +14 +14 1025.3 1025.1
03 23.08 штиль 0 29 км н/о +12.5 +10.3 86 +12 +12 1025.2 1025.0
04 23.08 СЗ 1 12 км н/о +12.8 +11.7 93 +13 +13 1025.0 1024.8
05 23.08 З 1 12 км н/о +11.8 +10.7 93 +12 +12 1025.2 1025.0
06 23.08 ЮЗ 1 15 км н/о +12.7 +12.0 96 +13 +13 1025.5 1025.3 +11.4
07 23.08 З 1 30 км н/о +17.4 +15.5 89 +18 +18 1025.8 1025.5
08 23.08 С 1 30 км н/о +19.2 +14.7 75 +22 +22 комфорт 1025.8 1025.6
09 23.08 Ю 2 40 км н/о +19.4 +15.0 76 +22 +22 комфорт 1025.9 1025.6
10 23.08 ЮВ 3 30 км н/о +20.1 +14.9 72 +23 +23 комфорт 1025.7 1025.5
11 23.08 ЮВ 3 35 км н/о +21.0 +14.8 68 +24 +24 комфорт 1025.5 1025.2
12 23.08 ЮВ 4 35 км н/о +22.1 +15.1 65 +26 +26 душно 1025.2 1024.9
13 23.08 В 6 40 км н/о +22.3 +14.9 63 +26 +26 жарко 1024.8 1024.6
14 23.08 В 7 40 км н/о +22.3 +15.0 63 +26 +26 жарко 1024.4 1024.2
15 23.08 В 6 30 км н/о +21.6 +15.8 70 +25 +25 комфорт 1024.0 1023.7
16 23.08 В 6 30 км н/о +21.6 +15.5 68 +25 +25 комфорт 1023.5 1023.3
17 23.08 В 6 35 км н/о +21.0 +14.5 66 +24 +24 комфорт 1023.2 1022.9
18 23.08 В 5 40 км н/о +20.4 +12.9 62 +22 +22 комфорт 1022.8 1022.6 +23.1
19 23.08 В 5 40 км н/о +18.9 +13.7 72 +20 +20 1022.8 1022.6
20 23.08 В 4 45 км н/о +17.8 +14.5 81 +18 +18 1022.8 1022.6
21 23.08 ЮВ 4 30 км н/о +17.5 +15.2 86 +17 +17 1022.7 1022.4
22 23.08 ЮВ 3 19 км н/о +16.9 +14.9 88 +17 +17 1022.5 1022.3
23 23.08 ЮВ 3 9000 м дым н/о +16.4 +14.9 91 +16 +16 1022.3 1022.0
00 24.08 СВ 1 400 м туман н/о +14.3 +13.4 94 +15 +15 1022.2 1021.9
01 24.08 С 2 400 м туман н/о +13.3 +12.8 97 +13 +13 1021.8 1021.5
02 24.08 С 2 300 м туман н/о +12.5 +12.1 97 +12 +12 1021.5 1021.2
03 24.08 С 2 800 м туман н/о +12.6 +12.4 99 +12 +12 1021.1 1020.8
04 24.08 СВ 2 100 м туман н/о +12.5 +12.3 99 +12 +12 1020.7 1020.5
05 24.08 С 2 200 м туман н/о +12.1 +11.9 99 +11 +11 1020.6 1020.3
06 24.08 С 2 600 м туман н/о +12.9 +12.8 99 +12 +12 1020.4 1020.2 +11.6
07 24.08 В 2 4000 м в посл. час туман н/о +18.2 +18.2 100 +19 +19 1020.4 1020.2
08 24.08 В 3 8000 м дым н/о +20.4 +16.1 76 +24 +24 комфорт 1020.5 1020.3
09 24.08 В 2 8000 м дым н/о +21.4 +15.5 69 +25 +25 комфорт 1020.5 1020.3
10 24.08 В 3 7000 м дым н/о +22.1 +16.1 69 +26 +26 душно 1020.4 1020.1
11 24.08 В 4 7000 м дым н/о +22.6 +15.4 64 +27 +27 душно 1020.1 1019.9
12 24.08 В 4 8000 м дым н/о +22.9 +15.7 64 +27 +27 душно 1019.7 1019.5
13 24.08 В 5 11 км н/о +24.3 +15.8 59 +27 +27 жарко 1019.2 1019.0
14 24.08 В 6 12 км дым н/о +24.3 +16.2 61 +28 +28 душно 1018.8 1018.6
15 24.08 В 6 9000 м дым н/о +23.8 +16.1 62 +27 +27 жарко 1018.5 1018.3
16 24.08 В 6 9000 м дым н/о +22.3 +15.9 67 +26 +26 жарко 1018.2 1018.0
17 24.08 В 6 8000 м дым н/о +21.0 +16.2 74 +24 +24 комфорт 1018.0 1017.7
18 24.08 В 5 9000 м дым н/о +20.5 +16.0 75 +23 +23 комфорт 1017.9 1017.6 +24.8
19 24.08 В 4 10 км н/о +20.0 +15.7 76 +23 +23 комфорт 1017.8 1017.6
20 24.08 В 2 7000 м дым н/о +18.8 +16.0 84 +20 +20 1018.0 1017.7
21 24.08 С 1 3700 м дым н/о +16.5 +14.7 89 +17 +17 1018.0 1017.7
22 24.08 В 2 2300 м дым н/о +15.5 +14.1 91 +15 +15 1018.1 1017.8
23 24.08 С 2 1400 м дымка н/о +15.4 +14.6 95 +15 +15 1018.0 1017.7
00 25.08 С 2 500 м туман н/о +15.2 +14.7 97 +15 +15 1017.8 1017.5
01 25.08 С 2 600 м туман н/о +14.5 +14.2 98 +14 +14 1017.6 1017.3
02 25.08 С 2 100 м туман н/о +13.6 +13.2 97 +13 +13 1017.7 1017.4
03 25.08 С 2 <100 м туман н/о +13.3 +13.0 98 +12 +12 1017.4 1017.2
04 25.08 С 2 <100 м морось с дождем н/о +12.8 +12.6 99 +12 +12 1017.4 1017.2
05 25.08 С 2 100 м туман н/о +13.3 +13.2 99 +12 +12 1017.4 1017.2
06 25.08 С 1 600 м туман н/о +13.8 +13.7 99 +14 +14 1017.7 1017.5 +12.6 0.0
07 25.08 С 1 1100 м в посл. час туман н/о +17.0 +17.0 100 +18 +18 1018.1 1017.9
08 25.08 В 2 8000 м дым н/о +21.2 +18.6 85 +26 +26 душно 1018.4 1018.2
09 25.08 В 3 9000 м дым н/о +22.6 +16.6 69 +27 +27 душно 1018.8 1018.6
10 25.08 ЮВ 3 17 км н/о +24.9 +15.5 56 +28 +28 жарко 1018.7 1018.5
11 25.08 В 4 30 км н/о +26.2 +15.8 53 +29 +29 жарко 1018.6 1018.4
12 25.08 В 5 35 км н/о +27.3 +16.1 50 +31 +31 душно 1018.5 1018.3
13 25.08 В 6 23 км н/о +27.8 +15.8 48 +31 +31 душно 1018.4 1018.2
14 25.08 В 7 50 км н/о +27.3 +15.7 49 +30 +30 душно 1018.4 1018.2
15 25.08 В 7 40 км н/о +27.2 +15.8 50 +30 +30 душно 1018.3 1018.1
16 25.08 В 6 40 км н/о +26.0 +15.7 53 +29 +29 душно 1018.2 1018.0
17 25.08 В 6 30 км н/о +24.9 +15.9 57 +28 +28 жарко 1018.3 1018.1
18 25.08 В 5 16 км н/о +23.3 +15.5 62 +28 +28 душно 1018.5 1018.3 +28.4
19 25.08 В 4 22 км н/о +21.9 +15.3 66 +25 +25 комфорт 1018.8 1018.5

 

Местоположение метеостанции Шоберинесс (Великобритания): широта 51.55 долгота 0.83 высота над уровнем моря 3 м.

В архиве по умолчанию представлена погода в Шоберинессе за последнюю неделю. Архивные данные за месяц целиком и за предыдущие месяцы, начиная с января 2011 года, Вы можете получить, выбрав интересующий диапазон дат из раскрывающегося списка и нажав кнопку "Ввод!".


*Определитесь, кто Вы:
робот инопланетянин человек

Внимание! Время в таблицах - всемирное. Для получения местного времени необходимо прибавить поправку, которая равна 0 ч.

Смотрите также архив погоды в соседних городах и на ближайших метеорологических станциях:

Погода в Грейвзенде (Великобритания) (38 км)
Погода в Ротамстеде (Великобритания) (43 км)
Погода в Кент (Великобритания) (44 км)
Погода на Аэродроме Andrewsfield (Великобритания) (45 км)
Погода в Заливе Лангдон (Великобритания) (59 км)
Погода в Уоттишаме (Великобритания) (64 км)
Погода в Лондоне (Великобритания) (66 км)
Погода на Аэродроме Кенли (Великобритания) (69 км)
Погода в Херстмонсо (Великобритания) (81 км)
Погода в Норхолте (Великобритания) (86 км)

Пояснения к столбцам:

Ветер - указаны скорость ветра в м/с - средняя за 10 мин, порывы в срок и между сроками (в фигурных скобках) и направление, откуда дует ветер: С - северный, СВ - северо-восточный, В - восточный, ЮВ - юго-восточный, Ю - южный, ЮЗ - юго-западный, З - западный, СЗ - северо-западный.
Видимость - горизонтальная дальность видимости в метрах или километрах. При видимости от 1 до 10 км при отсутствии осадков обычно наблюдается дымка, при ухудшении видимости до 1 км и менее - туман. В сухую погоду видимость может ухудшаться дымом, пылью или мглою.
Явления - указаны атмосферные явления, наблюдавшиеся в срок или в последний час перед сроком; фигурными скобками обозначены явления, наблюдавшиеся между сроками (за 1-3 часа до срока); квадратными скобками обозначены град или гололедные отложения с указанием их диаметра в мм.
Облачность - указаны через наклонную черту общая и нижняя облачность в баллах и высота нижней границы облаков в метрах; квадратными скобками обозначены формы облаков: Ci - перистые, Cs - перисто-слоистые, Cc - перисто-кучевые, Ac - высококучевые, As - высокослоистые, Sc - слоисто-кучевые, Ns - слоисто-дождевые, Cu - кучевые, Cb - кучево-дождевые. Подробнее классификацию облаков см. в Атласе облаков (PDF).
T - Температура воздуха - температура, измеренная на высоте 2 м над землей.
Td - Температура точки росы - температура, при понижении до которой содержащийся в воздухе водяной пар достигнет насыщения.
f - Относительная влажность воздуха - влажноcть воздуха, измеренная на высоте 2 м над землей.
Te - Эффективная температура - температура, которую ощущает одетый по сезону человек в тени. Характеристика душности погоды. При расчете учитывается влияние влажности воздуха и скорости ветра на теплоощущения человека.
Tes - Эффективная температура на солнце - температура, которую ощущает человек, с поправкой на солнечный нагрев. Характеристика знойности погоды. Зависит от высоты солнца над горизонтом, облачности и скорости ветра. Ночью, в пасмурную погоду, а также при ветре 12 м/с и более поправка равна нулю.
P - Атмосферное давление - приведенное к уровню моря атмосферное давление.
Po - Атмосферное давление - измеренное на уровне метеостанции атмосферное давление.
Tmin - Минимальная температура - минимум температуры воздуха на высоте 2 м над землей.
Tmax - Максимальная температура - максимум температуры воздуха на высоте 2 м над землей.
R - Количество осадков - Количество выпавших осадков за период времени, мм. При наведении курсора мыши на число - период времени, за который выпало указанное количество осадков.
R24 - Количество осадков - Количество выпавших осадков за 24 часа, мм.
S - Снежный покров - Высота снежного покрова, см. При наведении курсора мыши на число - состояние снежного покрова и степень покрытия местности в баллах.